Torna al catalogo

STARLINK-33938

AttivoComunicazioniVLEO
NORAD 63778·PAYLOAD·🇺🇸 United States

Lanciato May 2, 2025 da Cape Canaveral Space Force Station

Loading…

Prossimi Passaggi (prossime 24 ore)

TLE

AggiornatoSource: CelesTrak SupGP

Epoca: Sep 14, 2026, 21:32 UTC

1 63778C 25091D   26257.89770833  .00068994  00000+0  24969-2 0  2579
2 63778  43.0031  64.0514 0001675 279.7862 247.6381 15.27571538    10

Traccia STARLINK-33938 in tempo reale con AllMySat

Download on the App Store